Regional Weather Roundup
Issued by NWS

Home | Current Version | Previous Version | Text Only | Print | Product List | Glossary Off
Versions: 1 2 3 4 5 6 7 8 9 10 11 12 13 14 15 16 17 18 19 20 21 22 23 24 25 26 27 28 29 30 31 32 33 34 35 36 37 38 39 40 41 42 43 44 45 46 47 48 49 50

000
ASUS45 KSLC 221810
RWRUT

UTAH REGIONAL WEATHER ROUNDUP
NATIONAL WEATHER SERVICE SALT LAKE CITY UT
1200 PM MDT TUE JUL 22 2014

UTZ001>011-023>025-221900-

NORTHERN UTAH

CITY           SKY/WX    TMP DP  RH WIND       PRES   REMARKS
HILL AFB       SUNNY     85  35  16 SW8       30.27S
LOGAN          NOT AVBL
OGDEN          SUNNY     88  32  13 S9        30.24F
PROVO AIRPORT  SUNNY     86  39  19 W6        30.26F
SALT LAKE CITY PTSUNNY   89  33  13 VRB6      30.21F
VERNAL         SUNNY     83  30  14 E5        30.32S
WENDOVER       SUNNY     82  45  26 SE9       30.23S
HEBER CITY     SUNNY     82  41  23 NW6       30.32F
WEST JORDAN    SUNNY     91  46  21 SE15      30.24F

$$

UTZ012>022-026-027-221900-

SOUTHERN UTAH

CITY           SKY/WX    TMP DP  RH WIND       PRES   REMARKS
BRYCE CANYON   SUNNY     82  31  15 SE12      30.48S
CEDAR CITY     SUNNY     87  26  11 VRB3      30.30F
MILFORD        SUNNY     88  24  10 S9        30.26F
MOAB/CYNLANDS  SUNNY     92  24   8 CALM      30.22F
PRICE          SUNNY     88  23   9 S7        30.35S
ST GEORGE      CLEAR     90  30  12 CALM      30.13F
KANAB            N/A     90  28  11 SW3       30.29F

$$

REGIONAL REPORTS     COLORADO/ARIZONA

CITY           SKY/WX    TMP DP  RH WIND       PRES   REMARKS
CRAIG, CO      SUNNY     86  36  16 N7        30.38F
GRAND JUNCTION SUNNY     88  28  11 S7        30.27F
RIFLE          SUNNY     87  33  14 VRB3      30.33F
MONTROSE       SUNNY     87  39  18 VRB5      30.36F
CORTEZ         SUNNY     93  26   9 NE8       30.33F
PAGE, AZ       SUNNY     93  27   9 VRB5      30.22F
GRAND CANYON   MOSUNNY   86  32  14 VRB5      30.40F
KINGMAN        SUNNY     94  37  13 VRB5      30.15F
FLAGSTAFF      CLOUDY    82  31  15 NE8       30.44F

$$

REGIONAL REPORTS    NEVADA/IDAHO/WYOMING

CITY           SKY/WX    TMP DP  RH WIND       PRES   REMARKS
LAS VEGAS, NV  SUNNY     97  29   9 NE5       30.02F HX  91
ELY            SUNNY     85  21   9 SE16G23   30.31F
ELKO           SUNNY     79  45  29 CALM      30.24F
POCATELLO, ID  SUNNY     81  52  36 VRB6      30.26S
BURLEY         SUNNY     82  53  36 NE7       30.21F
EVANSTON, WY   SUNNY     79  37  22 SW12G17   30.44S
ROCK SPRINGS   SUNNY     84  32  15 VRB5      30.40F

$$



USA.gov is the U.S. government's official web portal to all federal, state and local government web resources and services.